Language: 


Des rapports , des résumés tant et plus, au choix de chacun....


Données Historiques de Météogheer
Journalier Rapport pour Novembre 12, 2017 Unitée:  Impériale    Métrique   Les deux
Suivant Jour »
Journalier Hebdomadaire Mensuel Annuel Sur mesure
  Max: Min: Moyenne:
Température: 49.3 °F 42.3 °F 45.1 °F
Point de rosée: 48.2 °F 35.6 °F 43 °F
Humidité: 98% 61% 91%
Vent: 15.4mph 0mph 4mph
Rafales: 23.9mph - -
Vent- - WNW
Pression: 29.9 in 0 in -
Pluie: 0.39 in    
Historical Graphs
 
 
Données tabulaires pour Novembre 12, 2017
Heure Température Point de rosée Pression Vent Vent Rafales Humidité Pluie Taux (Horaire) Conditions
00:03 45.1 °F 44.6 °F 29.9 in Calm     98% 0 in
00:08 45.1 °F 44.6 °F 29.9 in Calm     98% 0 in
00:10 45.1 °F 44.6 °F 29.9 in Calm     98% 0 in
00:15 45.3 °F 44.6 °F 29.9 in Calm     98% 0 in
00:20 45.3 °F 44.6 °F 29.9 in Calm     98% 0 in
00:25 45.3 °F 44.6 °F 29.9 in Calm     98% 0 in
00:30 45.3 °F 44.6 °F 29.9 in Calm     98% 0 in
00:35 45.1 °F 44.6 °F 29.9 in Calm     98% 0 in
00:40 45 °F 44.6 °F 29.9 in Calm     98% 0 in
00:45 44.8 °F 44.6 °F 29.8 in Calm     98% 0 in
00:50 44.6 °F 44.6 °F 29.8 in Calm     98% 0 in
00:55 44.6 °F 44.6 °F 29.8 in Calm     98% 0 in
01:00 44.6 °F 44.6 °F 29.8 in Calm     98% 0 in
01:06 44.6 °F 44.6 °F 29.8 in Calm     98% 0 in
01:11 44.6 °F 44.6 °F 29.8 in Calm     98% 0 in
01:16 44.4 °F 44.6 °F 29.8 in Calm     98% 0 in
01:21 44.2 °F 44.6 °F 29.8 in Calm     98% 0 in
01:26 44.2 °F 44.6 °F 29.8 in Calm     98% 0 in
01:31 44.2 °F 44.6 °F 29.8 in Calm     98% 0 in
01:36 44.2 °F 44.6 °F 29.8 in Calm     98% 0 in
01:41 44.4 °F 44.6 °F 29.8 in Calm     98% 0 in
01:46 44.4 °F 44.6 °F 29.8 in Calm     98% 0 in
01:51 44.4 °F 44.6 °F 29.8 in Calm     98% 0 in
01:56 44.4 °F 44.6 °F 29.8 in Calm     98% 0 in
02:01 44.4 °F 44.6 °F 29.8 in Calm     98% 0 in
02:06 44.4 °F 44.6 °F 29.8 in Calm     98% 0 in
02:11 44.2 °F 44.6 °F 29.8 in Calm     98% 0 in
02:16 44.2 °F 44.6 °F 29.8 in Calm     98% 0 in
02:21 44.2 °F 44.6 °F 29.8 in Calm     98% 0 in
02:26 44.2 °F 44.6 °F 29.8 in Calm     98% 0 in
02:31 44.2 °F 44.6 °F 29.8 in Calm     98% 0 in
02:36 44.2 °F 44.6 °F 29.8 in Calm     98% 0 in
02:41 44.2 °F 44.6 °F 29.8 in Calm     98% 0 in
02:46 44.2 °F 44.6 °F 29.8 in Calm     98% 0 in
02:51 44.2 °F 44.6 °F 29.8 in Calm     98% 0 in
02:56 44.2 °F 44.6 °F 29.8 in Calm     98% 0 in
03:01 44.2 °F 44.6 °F 0 in Calm     98% 0 in
03:06 44.2 °F 44.6 °F 29.8 in Calm     98% 0 in
03:12 44.2 °F 44.6 °F 29.8 in Calm     98% 0 in
03:17 44.2 °F 44.6 °F 29.8 in Calm     98% 0 in
03:22 44.4 °F 44.6 °F 29.8 in Calm     98% 0 in
03:27 44.4 °F 44.6 °F 29.8 in Calm     98% 0 in
03:32 44.4 °F 44.6 °F 29.8 in Calm     98% 0 in
03:37 44.4 °F 44.6 °F 29.8 in Calm     98% 0 in
03:42 44.4 °F 44.6 °F 29.7 in Calm     98% 0 in
03:47 44.2 °F 44.6 °F 29.7 in Calm     98% 0 in
03:52 44.2 °F 44.6 °F 29.7 in Calm     98% 0 in
03:57 44.2 °F 44.6 °F 29.7 in Calm     98% 0 in
04:02 44.2 °F 44.6 °F 29.7 in Calm     98% 0 in
04:07 44.2 °F 44.6 °F 29.7 in Calm     98% 0 in
04:12 44.2 °F 44.6 °F 29.7 in Calm     98% 0 in
04:17 44.4 °F 44.6 °F 29.7 in Calm     98% 0 in
04:22 44.4 °F 44.6 °F 29.7 in Calm     98% 0 in
04:24 44.4 °F 44.6 °F 29.7 in Calm     98% 0 in
04:28 44.6 °F 44.6 °F 29.8 in Calm     98% 0 in
04:29 44.6 °F 44.6 °F 29.8 in Calm     98% 0 in
04:34 44.6 °F 44.6 °F 29.8 in Calm     98% 0 in
04:39 44.6 °F 44.6 °F 29.8 in Calm     98% 0 in
04:44 44.6 °F 44.6 °F 29.7 in Calm     98% 0 in
04:49 44.6 °F 44.6 °F 29.7 in Calm     98% 0 in
04:55 44.6 °F 44.6 °F 29.7 in Calm     98% 0 in
05:00 44.6 °F 44.6 °F 29.7 in Calm     98% 0 in
05:05 44.4 °F 44.6 °F 29.7 in Calm     98% 0.01 in
05:15 44.4 °F 44.6 °F 29.7 in Calm     98% 0.01 in
05:20 44.4 °F 44.6 °F 29.7 in Calm     98% 0.01 in
05:25 44.4 °F 44.6 °F 29.7 in Calm     98% 0.02 in
05:30 44.4 °F 44.6 °F 29.7 in Calm     98% 0.03 in
05:35 44.4 °F 44.6 °F 29.7 in Calm     98% 0.03 in
05:40 44.6 °F 44.6 °F 29.7 in Calm     98% 0.03 in
05:45 44.6 °F 44.6 °F 29.7 in Calm     98% 0.05 in
05:50 44.6 °F 44.6 °F 29.7 in Calm     98% 0.05 in
05:55 44.6 °F 44.6 °F 29.7 in Calm     98% 0.06 in
06:00 44.6 °F 44.6 °F 29.7 in Calm     98% 0.06 in
06:05 44.6 °F 44.6 °F 29.7 in Calm     98% 0.05 in
06:10 44.6 °F 44.6 °F 29.7 in Calm     98% 0.05 in
06:15 44.6 °F 44.6 °F 29.6 in Calm     98% 0.06 in
06:20 44.6 °F 44.6 °F 29.6 in Calm     98% 0.06 in
06:25 44.6 °F 44.6 °F 29.6 in Calm     98% 0.05 in
06:30 44.6 °F 44.6 °F 29.7 in Calm     98% 0.05 in
06:35 44.6 °F 44.6 °F 29.7 in Calm     98% 0.05 in
06:40 44.6 °F 44.6 °F 29.7 in West 1.3 mph 1.3 mph 98% 0.06 in
06:45 44.6 °F 44.6 °F 29.7 in West 1.3 mph 1.3 mph 98% 0.05 in
06:50 44.6 °F 44.6 °F 29.7 in West 1.3 mph 1.3 mph 98% 0.05 in
06:55 44.6 °F 44.6 °F 29.7 in West 1.3 mph 1.3 mph 98% 0.05 in
07:00 44.6 °F 44.6 °F 29.6 in West 1.3 mph 1.3 mph 98% 0.05 in
07:05 44.6 °F 44.6 °F 29.6 in West 1.3 mph 1.3 mph 98% 0.06 in
07:10 44.6 °F 44.6 °F 29.6 in West 1.3 mph 1.3 mph 98% 0.06 in
07:15 44.6 °F 44.6 °F 29.6 in Calm   2.5 mph 98% 0.05 in
07:20 44.6 °F 44.6 °F 29.6 in Calm   2.5 mph 98% 0.05 in
07:25 44.6 °F 44.6 °F 29.6 in Calm     98% 0.05 in
07:30 44.6 °F 44.6 °F 29.7 in Calm     98% 0.05 in
07:35 44.6 °F 44.6 °F 29.7 in Calm     98% 0.05 in
07:40 44.4 °F 44.6 °F 29.7 in Calm     98% 0.05 in
07:45 44.2 °F 44.6 °F 29.7 in Calm     98% 0.05 in
07:50 44.1 °F 44.6 °F 29.7 in Calm     98% 0.05 in
07:55 44.1 °F 44.6 °F 29.7 in Calm     98% 0.05 in
08:00 44.1 °F 44.6 °F 29.7 in Calm     98% 0.06 in
08:05 44.1 °F 44.6 °F 29.7 in Calm     98% 0.05 in
08:10 44.1 °F 44.6 °F 29.7 in Calm     98% 0.06 in
08:15 44.1 °F 44.6 °F 29.7 in NW 3.6 mph 3.6 mph 98% 0.07 in
08:20 43.9 °F 44.6 °F 29.7 in West 2 mph 3.6 mph 98% 0.07 in
08:21 43.9 °F 44.6 °F 29.7 in West 1.6 mph 3.6 mph 98% 0.07 in
08:26 43.9 °F 44.6 °F 29.7 in West 3.6 mph 3.6 mph 98% 0.07 in
08:31 43.9 °F 44.6 °F 29.7 in West 3.6 mph 3.6 mph 98% 0.07 in
08:36 43.9 °F 44.6 °F 29.7 in West 3.6 mph 3.6 mph 98% 0.07 in
08:41 43.9 °F 44.6 °F 29.6 in Calm   3.6 mph 98% 0.06 in
08:46 43.9 °F 44.6 °F 29.6 in West 0.9 mph 3.6 mph 98% 0.06 in
08:51 43.9 °F 44.6 °F 29.6 in West 2.5 mph 2.7 mph 98% 0.05 in
08:56 43.9 °F 44.6 °F 29.7 in WNW 0.9 mph 2.9 mph 98% 0.05 in
09:01 43.9 °F 44.6 °F 29.7 in Calm   4.7 mph 98% 0.04 in
09:07 43.9 °F 44.6 °F 29.7 in Calm   4.7 mph 98% 0.03 in
09:12 44.1 °F 44.6 °F 29.6 in NW 0.9 mph 4.5 mph 98% 0.01 in
09:17 43.9 °F 44.6 °F 29.6 in Calm   2.7 mph 98% 0.02 in
09:22 43.7 °F 44.6 °F 29.6 in Calm   2.5 mph 98% 0.02 in
09:27 44.1 °F 44.6 °F 29.6 in North 3.6 mph 3.6 mph 98% 0.01 in
09:32 44.2 °F 44.6 °F 29.6 in NNW 3.1 mph 3.6 mph 98% 0.01 in
09:37 44.2 °F 44.6 °F 29.6 in West 1.6 mph 3.6 mph 98% 0.01 in
09:42 44.2 °F 44.6 °F 29.6 in WNW 1.6 mph 3.6 mph 98% 0.01 in
09:47 44.6 °F 44.6 °F 29.6 in West 3.1 mph 4 mph 98% 0.01 in
09:52 45 °F 44.6 °F 29.6 in Calm   5.4 mph 98% 0.01 in
09:57 45.3 °F 44.6 °F 29.6 in Calm   5.4 mph 98% 0.01 in
10:02 45.1 °F 44.6 °F 29.6 in West 3.4 mph 6 mph 98% 0.01 in
10:07 45.3 °F 44.6 °F 29.6 in West 2.9 mph 6 mph 98% 0.01 in
10:12 46 °F 46.4 °F 29.6 in West 0.9 mph 5.8 mph 98% 0.01 in
10:17 46.6 °F 46.4 °F 29.6 in West 5.4 mph 5.4 mph 98% 0 in
10:22 46.6 °F 46.4 °F 29.6 in West 6 mph 6.3 mph 98% 0 in
10:27 46.6 °F 46.4 °F 29.6 in West 8.1 mph 9.4 mph 98% 0 in
10:32 46.4 °F 46.4 °F 29.6 in WNW 9.4 mph 9.4 mph 98% 0 in
10:37 46.4 °F 46.4 °F 29.6 in WSW 4.3 mph 9.4 mph 98% 0 in
10:42 46.4 °F 46.4 °F 29.6 in WSW 4.7 mph 7.8 mph 98% 0 in
10:47 46.6 °F 46.4 °F 29.6 in WSW 4 mph 7.8 mph 98% 0 in
10:52 46.8 °F 46.4 °F 29.6 in West 4 mph 8.1 mph 98% 0 in
10:57 46.6 °F 46.4 °F 29.6 in WSW 3.6 mph 8.1 mph 98% 0 in
11:02 46.6 °F 46.4 °F 29.6 in West 5.8 mph 7.2 mph 98% 0 in
11:07 47.3 °F 48.2 °F 29.6 in West 5.8 mph 7.2 mph 98% 0 in
11:12 47.7 °F 48.2 °F 29.6 in West 3.1 mph 6 mph 98% 0 in
11:17 48.4 °F 48.2 °F 29.6 in NW 2 mph 6 mph 98% 0 in
11:22 48.9 °F 48.2 °F 29.6 in West 6 mph 6 mph 98% 0 in
11:27 49.3 °F 48.2 °F 29.6 in West 5.6 mph 6 mph 97% 0 in
11:32 49.3 °F 48.2 °F 29.6 in West 4.9 mph 11.2 mph 92% 0 in
11:37 48.9 °F 44.6 °F 29.6 in NW 6 mph 11.2 mph 86% 0 in
11:42 48.6 °F 44.6 °F 29.6 in West 7.4 mph 7.4 mph 82% 0 in
11:47 48.2 °F 42.8 °F 29.6 in NW 8.1 mph 10.1 mph 80% 0 in
11:52 46.9 °F 41 °F 29.6 in West 5.8 mph 10.7 mph 79% 0 in
11:57 46.8 °F 42.8 °F 29.6 in North 3.6 mph 12.5 mph 82% 0 in
12:02 46.8 °F 42.8 °F 29.6 in West 7.8 mph 12.5 mph 84% 0 in
12:07 46.9 °F 42.8 °F 29.6 in NW 8.7 mph 8.7 mph 85% 0 in
12:12 46.8 °F 42.8 °F 29.6 in NNE 2.9 mph 9.8 mph 84% 0 in
12:17 46.8 °F 42.8 °F 29.6 in NNW 3.6 mph 9.8 mph 84% 0 in
12:22 47.7 °F 42.8 °F 29.6 in NE 8.1 mph 8.5 mph 81% 0 in
12:23 47.7 °F 42.8 °F 29.6 in NE 8.1 mph 8.5 mph 81% 0 in
12:28 48.2 °F 42.8 °F 29.6 in NNW 6.5 mph 16.8 mph 79% 0 in
12:33 47.1 °F 41 °F 29.6 in WNW 6 mph 16.8 mph 76% 0 in
12:38 47.7 °F 41 °F 29.6 in NNW 8.5 mph 14.8 mph 76% 0 in
12:43 48 °F 41 °F 29.6 in NNW 6.9 mph 9.6 mph 74% 0 in
12:48 48.4 °F 41 °F 29.6 in North 5.4 mph 8.9 mph 73% 0 in
12:49 48.2 °F 41 °F 29.6 in South 7.2 mph 8.9 mph 74% 0 in
12:54 48.6 °F 41 °F 29.6 in WNW 3.8 mph 10.5 mph 73% 0 in
12:59 49.1 °F 41 °F 29.6 in West 8.5 mph 10.7 mph 72% 0 in
13:04 49.3 °F 41 °F 29.6 in NW 12.1 mph 12.1 mph 72% 0 in
13:09 48.4 °F 39.2 °F 29.6 in NNW 9.6 mph 12.1 mph 71% 0 in
13:19 48 °F 39.2 °F 29.6 in NW 7.8 mph 15.9 mph 71% 0 in
13:24 48.9 °F 39.2 °F 29.6 in WNW 3.4 mph 15.9 mph 70% 0 in
13:30 48.9 °F 39.2 °F 29.6 in NW 5.4 mph 15.7 mph 68% 0 in
13:35 48.4 °F 37.4 °F 29.6 in SSE 2.9 mph 15.7 mph 67% 0 in
13:40 48.7 °F 39.2 °F 29.6 in NNW 2.5 mph 13.6 mph 69% 0 in
13:45 48.2 °F 39.2 °F 29.7 in WNW 5.8 mph 14.5 mph 68% 0 in
13:50 47.5 °F 37.4 °F 29.7 in North 10.3 mph 14.8 mph 68% 0 in
13:55 46.9 °F 37.4 °F 29.7 in WNW 10.3 mph 14.8 mph 67% 0 in
14:00 46.8 °F 37.4 °F 29.7 in NNW 8.1 mph 12.5 mph 69% 0 in
14:01 46.8 °F 37.4 °F 29.7 in WNW 7.6 mph 12.5 mph 69% 0 in
14:06 46.4 °F 37.4 °F 29.7 in North 10.1 mph 13 mph 69% 0 in
14:11 46.4 °F 37.4 °F 29.7 in NW 6.5 mph 13 mph 71% 0 in
14:16 47.7 °F 39.2 °F 29.7 in NE 4 mph 11 mph 70% 0 in
14:21 48.2 °F 37.4 °F 29.7 in NNW 5.4 mph 15.4 mph 67% 0 in
14:26 47.8 °F 37.4 °F 29.7 in SSW 15.4 mph 15.4 mph 63% 0 in
14:31 47.1 °F 35.6 °F 29.7 in WNW 10.5 mph 15.4 mph 62% 0 in
14:36 47.1 °F 35.6 °F 29.7 in NW 8.5 mph 15.2 mph 64% 0 in
14:41 47.1 °F 35.6 °F 29.7 in NNW 6 mph 10.5 mph 64% 0 in
14:46 47.5 °F 37.4 °F 29.7 in WNW 9.6 mph 11 mph 64% 0 in
14:51 47.8 °F 37.4 °F 29.7 in NNW 8.5 mph 11.2 mph 63% 0 in
14:56 48 °F 35.6 °F 29.6 in ENE 6.5 mph 12.3 mph 61% 0 in
15:01 47.8 °F 35.6 °F 29.6 in North 8.5 mph 13 mph 62% 0 in
15:06 48.2 °F 35.6 °F 29.6 in NNW 2.7 mph 16.8 mph 62% 0 in
15:12 47.5 °F 35.6 °F 29.6 in WNW 7.6 mph 16.8 mph 62% 0 in
15:17 47.5 °F 35.6 °F 29.6 in North 11.9 mph 17 mph 62% 0 in
15:22 47.3 °F 35.6 °F 29.6 in NNW 6.3 mph 17 mph 62% 0 in
15:27 47.1 °F 35.6 °F 29.7 in NNW 4 mph 18.8 mph 63% 0 in
15:32 46.9 °F 35.6 °F 29.7 in West 6.5 mph 22.6 mph 62% 0 in
15:37 46.8 °F 35.6 °F 29.7 in NNW 6 mph 22.6 mph 65% 0 in
15:42 46.6 °F 35.6 °F 29.7 in WNW 6 mph 12.8 mph 66% 0 in
15:47 46.4 °F 35.6 °F 29.7 in ENE 8.1 mph 15.4 mph 66% 0 in
15:52 46.4 °F 37.4 °F 29.7 in North 5.4 mph 15.4 mph 68% 0 in
15:57 46.4 °F 37.4 °F 29.7 in WSW 4.3 mph 12.1 mph 69% 0 in
16:02 46.4 °F 37.4 °F 29.7 in NNW 10.3 mph 12.1 mph 70% 0 in
16:07 46.4 °F 37.4 °F 29.7 in NNW 8.1 mph 13.2 mph 70% 0 in
16:09 46.4 °F 37.4 °F 29.7 in NNW 3.8 mph 13.2 mph 70% 0 in
16:14 46.4 °F 37.4 °F 29.7 in NW 5.8 mph 13.2 mph 71% 0 in
16:19 46.2 °F 37.4 °F 29.7 in WNW 6.3 mph 11.9 mph 71% 0 in
16:24 46.2 °F 37.4 °F 29.7 in NNE 5.4 mph 10.5 mph 72% 0 in
16:29 45.9 °F 39.2 °F 29.7 in NE 5.8 mph 19 mph 76% 0 in
16:34 45.1 °F 39.2 °F 29.7 in NNW 10.7 mph 19 mph 79% 0 in
16:39 44.6 °F 39.2 °F 29.7 in NW 10.5 mph 17.4 mph 82% 0 in
16:44 44.2 °F 41 °F 29.7 in North 4.7 mph 17.4 mph 85% 0 in
16:49 44.2 °F 41 °F 29.7 in WNW 5.6 mph 10.7 mph 86% 0 in
16:54 44.1 °F 41 °F 29.7 in North 5.8 mph 13.2 mph 88% 0 in
16:59 44.1 °F 41 °F 29.7 in North 5.6 mph 13.2 mph 89% 0 in
17:04 44.1 °F 41 °F 29.7 in NW 6.3 mph 12.5 mph 90% 0 in
17:09 44.1 °F 42.8 °F 29.7 in WNW 3.1 mph 12.5 mph 92% 0 in
17:14 44.2 °F 42.8 °F 29.7 in WNW 5.6 mph 14.5 mph 92% 0 in
17:19 44.2 °F 42.8 °F 29.7 in WSW 6.3 mph 14.5 mph 92% 0 in
17:24 44.2 °F 42.8 °F 29.7 in NNW 7.6 mph 19.9 mph 91% 0 in
17:29 44.2 °F 42.8 °F 29.7 in NNW 5.8 mph 19.9 mph 91% 0.01 in
17:34 44.2 °F 42.8 °F 29.7 in West 6.3 mph 14.5 mph 92% 0.01 in
17:39 44.2 °F 42.8 °F 29.7 in North 7.8 mph 14.3 mph 93% 0.03 in
17:44 44.1 °F 42.8 °F 29.7 in WNW 7.8 mph 14.3 mph 94% 0.03 in
17:49 44.1 °F 42.8 °F 29.7 in NNE 5.4 mph 12.3 mph 94% 0.03 in
17:54 44.1 °F 42.8 °F 29.7 in NW 7.6 mph 15.4 mph 94% 0.03 in
17:59 44.1 °F 42.8 °F 29.7 in NNW 6.3 mph 23.7 mph 95% 0.03 in
18:04 44.2 °F 42.8 °F 29.7 in North 3.6 mph 23.7 mph 95% 0.03 in
18:09 44.2 °F 42.8 °F 29.7 in North 7.2 mph 19.2 mph 95% 0.03 in
18:14 44.2 °F 42.8 °F 29.7 in North 10.7 mph 22.6 mph 96% 0.05 in
18:19 44.2 °F 42.8 °F 29.7 in NW 7.6 mph 22.6 mph 96% 0.05 in
18:24 44.2 °F 42.8 °F 29.7 in NNW 13.9 mph 15.2 mph 96% 0.05 in
18:29 44.2 °F 42.8 °F 29.7 in North 8.1 mph 15.2 mph 95% 0.03 in
18:34 44.4 °F 42.8 °F 29.7 in NNW 12.8 mph 19 mph 95% 0.03 in
18:35 44.4 °F 42.8 °F 29.7 in WNW 8.1 mph 19 mph 95% 0.03 in
18:40 44.6 °F 42.8 °F 29.7 in North 10.1 mph 19 mph 94% 0.01 in
18:45 44.8 °F 42.8 °F 29.8 in NNW 6.3 mph 12.1 mph 94% 0.01 in
18:50 44.8 °F 42.8 °F 29.8 in NNW 9.8 mph 17.4 mph 94% 0.01 in
18:55 44.8 °F 42.8 °F 29.8 in WNW 3.4 mph 17.4 mph 94% 0.01 in
19:00 44.8 °F 42.8 °F 29.8 in North 8.7 mph 15.2 mph 94% 0.02 in
19:05 44.8 °F 42.8 °F 29.8 in NNW 6.5 mph 10.7 mph 95% 0.02 in
19:10 44.8 °F 42.8 °F 29.8 in NNW 7.8 mph 10.7 mph 95% 0.02 in
19:15 44.8 °F 42.8 °F 29.8 in North 8.7 mph 8.7 mph 95% 0.01 in
19:20 44.8 °F 42.8 °F 29.8 in WNW 3.1 mph 8.7 mph 95% 0.01 in
19:26 45 °F 44.6 °F 29.8 in NNW 10.7 mph 14.8 mph 96% 0.01 in
19:31 45.1 °F 44.6 °F 29.8 in North 7.8 mph 14.8 mph 96% 0.03 in
19:36 45.1 °F 44.6 °F 29.8 in NNE 6 mph 14.8 mph 96% 0.03 in
19:41 45 °F 44.6 °F 29.8 in North 3.4 mph 10.3 mph 96% 0.03 in
19:46 45.1 °F 44.6 °F 29.8 in NE 4.3 mph 11.2 mph 96% 0.03 in
19:51 45.1 °F 44.6 °F 29.8 in NW 2 mph 12.1 mph 95% 0.03 in
19:56 45.1 °F 44.6 °F 29.8 in North 5.4 mph 12.1 mph 95% 0.03 in
20:01 45 °F 44.6 °F 29.8 in North 5.4 mph 10.3 mph 96% 0.03 in
20:06 44.8 °F 44.6 °F 29.8 in NNW 10.3 mph 10.5 mph 96% 0.03 in
20:11 44.8 °F 44.6 °F 29.8 in NNW 9.4 mph 13.2 mph 96% 0.03 in
20:16 44.6 °F 42.8 °F 29.8 in WNW 8.5 mph 17.4 mph 94% 0.03 in
20:21 44.8 °F 42.8 °F 29.8 in NNE 5.6 mph 17.4 mph 94% 0.03 in
20:26 44.8 °F 42.8 °F 29.8 in NW 12.3 mph 12.3 mph 95% 0.01 in
20:31 44.8 °F 42.8 °F 29.8 in ESE 6.5 mph 12.8 mph 95% 0.01 in
20:36 44.8 °F 42.8 °F 29.8 in North 6.5 mph 14.8 mph 94% 0.01 in
20:41 44.6 °F 42.8 °F 29.9 in NW 8.1 mph 14.8 mph 92% 0.01 in
20:46 44.2 °F 41 °F 29.9 in NW 8.9 mph 16.8 mph 86% 0.01 in
20:51 44.1 °F 41 °F 29.9 in NNW 7.2 mph 16.8 mph 87% 0.01 in
20:56 43.7 °F 41 °F 29.9 in North 7.6 mph 12.1 mph 88% 0.01 in
21:01 43.5 °F 41 °F 29.9 in NW 4 mph 12.1 mph 89% 0 in
21:06 43.5 °F 41 °F 29.9 in North 5.8 mph 10.1 mph 91% 0.01 in
21:11 43.5 °F 42.8 °F 29.9 in North 7.6 mph 9.8 mph 93% 0.01 in
21:16 43.5 °F 42.8 °F 29.9 in WNW 3.6 mph 8.1 mph 94% 0.01 in
21:21 43.5 °F 42.8 °F 29.9 in WNW 6 mph 7.6 mph 95% 0.01 in
21:26 43.7 °F 42.8 °F 29.9 in North 7.6 mph 7.6 mph 95% 0.01 in
21:31 43.7 °F 42.8 °F 29.9 in WSW 5.4 mph 7.8 mph 94% 0.01 in
21:36 43.9 °F 42.8 °F 29.9 in NW 8.1 mph 16.1 mph 95% 0.01 in
21:41 43.9 °F 42.8 °F 29.9 in North 7.8 mph 16.1 mph 95% 0.01 in
21:46 43.9 °F 42.8 °F 29.9 in NNW 6 mph 17.4 mph 95% 0.01 in
21:51 43.7 °F 42.8 °F 29.9 in WNW 8.5 mph 17.4 mph 95% 0.01 in
21:56 43.5 °F 42.8 °F 29.9 in NNW 6.3 mph 13.2 mph 95% 0.01 in
22:01 43.7 °F 42.8 °F 29.9 in NNW 3.6 mph 8.7 mph 95% 0.01 in
22:06 43.9 °F 42.8 °F 29.9 in NNW 5.6 mph 8.7 mph 95% 0 in
22:11 43.9 °F 42.8 °F 29.9 in North 4.9 mph 5.8 mph 95% 0 in
22:16 43.9 °F 42.8 °F 29.9 in North 6 mph 6 mph 95% 0 in
22:21 44.1 °F 42.8 °F 29.9 in NNW 4.9 mph 6 mph 96% 0 in
22:24 43.9 °F 42.8 °F 29.9 in NW 11 mph 17.4 mph 96% 0 in
22:27 43.5 °F 42.8 °F 29.9 in NNW 5.8 mph 17.4 mph 95% 0.01 in
22:31 43.3 °F 42.8 °F 29.9 in North 4.9 mph 17.4 mph 95% 0.01 in
22:37 43.3 °F 42.8 °F 29.9 in NW 5.4 mph 11 mph 95% 0.02 in
22:42 43.3 °F 42.8 °F 29.9 in NNE 4 mph 10.1 mph 95% 0.02 in
22:43 43.3 °F 42.8 °F 29.9 in NNE 6 mph 10.1 mph 95% 0.02 in
22:48 43.3 °F 42.8 °F 29.9 in NNE 6 mph 7.8 mph 96% 0.02 in
22:53 43.3 °F 42.8 °F 29.9 in WNW 3.6 mph 8.1 mph 96% 0.02 in
22:58 43.5 °F 42.8 °F 29.9 in WNW 5.8 mph 8.1 mph 97% 0.02 in
23:03 43.9 °F 44.6 °F 29.9 in NNW 10.3 mph 14.5 mph 98% 0.02 in
23:08 43.3 °F 42.8 °F 29.9 in WNW 13 mph 23.9 mph 96% 0.05 in
23:13 42.8 °F 42.8 °F 29.9 in NNW 7.6 mph 23.9 mph 96% 0.05 in
23:18 42.8 °F 42.8 °F 29.9 in North 9.6 mph 13 mph 95% 0.06 in
23:23 42.6 °F 42.8 °F 29.9 in NW 2 mph 10.7 mph 95% 0.07 in
23:28 42.4 °F 42.8 °F 29.9 in Calm   9.6 mph 96% 0.06 in
23:33 42.3 °F 42.8 °F 29.9 in NW 6 mph 6 mph 96% 0.05 in
23:38 42.3 °F 42.8 °F 29.9 in Calm   6 mph 96% 0.05 in
23:43 42.3 °F 42.8 °F 29.9 in ENE 6 mph 6 mph 96% 0.05 in
23:48 42.4 °F 42.8 °F 29.9 in NW 10.5 mph 10.5 mph 97% 0.05 in
23:53 42.6 °F 42.8 °F 29.9 in NNW 3.8 mph 10.5 mph 98% 0.05 in
23:58 42.6 °F 42.8 °F 29.9 in North 9.6 mph 10.5 mph 97% 0.05 in
Données Historique de Météo Turbie

Mise a jour : 21/05/2018 16:30:12
Généré par Cumulus 1.9.4 (1099)